Location: Finnegan
(51.1333°N, 112.0833°W)
Time: 14:11:10
(UTC+00:00)

ISS - Visible Passes

Search period start: 01 December 2021 00:00
Search period end: 11 December 2021 00:00
Orbit: 417 x 423 km, 51.6° (Epoch: 01 December)

Date Brightness Start Highest point End Pass type
(mag) Time Alt. Az. Time Alt. Az. Time Alt. Az.
01 Dec -3.8 00:38:50 10° W 00:42:14 80° N 00:44:35 19° E visible
01 Dec -1.7 02:15:42 10° W 02:17:34 29° W 02:17:34 29° W visible
02 Dec -3.7 01:28:30 10° W 01:31:55 75° SSW 01:32:21 62° SE visible
03 Dec -3.8 00:41:18 10° W 00:44:44 88° S 00:47:13 17° ESE visible
03 Dec -1.5 02:18:16 10° W 02:20:12 25° WSW 02:20:12 25° WSW visible
04 Dec -2.8 01:30:58 10° W 01:34:15 44° SSW 01:35:10 34° SSE visible
05 Dec -3.2 00:43:44 10° W 00:47:05 59° SSW 00:50:16 11° ESE visible
05 Dec -1.0 02:21:13 10° W 02:23:16 16° SW 02:23:16 16° SW visible
05 Dec -3.5 23:56:30 10° W 23:59:54 75° SSW 00:03:18 10° ESE visible
06 Dec -1.5 01:33:38 10° W 01:36:24 23° SW 01:38:34 13° SSE visible
07 Dec -1.9 00:46:14 10° W 00:49:18 32° SSW 00:52:22 10° SE visible
07 Dec -2.4 23:58:54 10° W 00:02:09 44° SSW 00:05:24 10° SE visible
08 Dec -0.4 01:37:22 10° WSW 01:38:19 11° SW 01:39:16 10° SSW visible
09 Dec -0.7 00:49:07 10° W 00:51:18 16° SW 00:53:28 10° S visible
10 Dec -1.0 00:01:29 10° W 00:04:13 23° SW 00:06:57 10° SSE visible
